Location: Brantley
(31.5822°N, 86.2569°W)
Time: 02:52:49
(UTC+00:00)

Transit 2A Rocket - Pass Details

Date: 23 February 2026
Orbit: 583 x 900 km, 66.7° (Epoch: 8 March)

Event Time Altitude Azimuth Distance (km) Brightness Sun altitude
Rises 05:23:56 0° 341° (NNW) 3,284 - -66.8°
Reaches altitude 10° 05:26:34 10° 348° (NNW) 2,299 - -67.0°
Maximum altitude 05:31:33 44° 60° (ENE) 984 - -67.4°
Drops below altitude 10° 05:36:05 10° 132° (SE) 2,089 - -67.6°
Sets 05:38:22 0° 139° (SE) 2,952 - -67.7°
